Location: Kampung Segan
(3.1399°N, 113.1002°E)
Time: 12:59:28
(UTC+00:00)

MOS 1-B Rocket - Pass Details

Date: 21 October 2025
Orbit: 891 x 1603 km, 99.0° (Epoch: 16 November)

Event Time Altitude Azimuth Distance (km) Brightness Sun altitude
Rises 20:03:45 0° 14° (NNE) 4,675 7.6 -32.1°
Reaches altitude 10° 20:06:33 10° 15° (NNE) 3,743 7.0 -31.4°
Maximum altitude 20:15:40 85° 104° (ESE) 1,610 5.0 -29.2°
Drops below altitude 10° 20:24:49 10° 192° (SSW) 3,749 7.0 -26.9°
Sets 20:27:37 0° 192° (SSW) 4,684 7.5 -26.2°
